[[{"header":{"parameterUnit":"m.s-1","parameterCategory":1,"la1":30.2991,"la2":30.254,"lo1":-89.0895,"lo2":-89.0444,"dy":0.0017,"dx":0.0017,"nx":28,"ny":28,"refTime":"2023-08-10T21:00:00:Z","depth":0,"parameterNumber":2,"parameterNumberName":"U-component_of_WINDS"},"data":[0,0,0,0,0,0,0,0,0,0,0,0,0,0,0,0,0,0,0,0,0,0,0,0,0,0,0,0,0,0,0,0,0,0,0,0,0,0,0,0,0,0,0,0,0,0,0,0,0,0,0,0,0,0,0,0,0,0,0.3504,0.3506,0,0.3693,0.3695,0.3697,0.3724,0.3722,0.3721,0.3719,0.3919,0.3926,0.3933,0,0,0,0,0,0,0,0,0,0,0,0,0,0.3171,0.3177,0.3503,0.3506,0.3508,0.3693,0.3695,0.3698,0.3724,0.3722,0.372,0.3718,0.3917,0.3925,0.3933,0,0,0,0,0,0,0,0,0,0,0,0,0,0.3334,0.3179,0.3503,0.3543,0.3549,0.3692,0.3696,0.3699,0.3725,0.3722,0.3719,0.3717,0.3914,0.3924,0.3934,0.4052,0,0,0.3966,0.3971,0,0,0,0,0,0,0,0,0.3324,0.3346,0.3535,0.3541,0.3547,0.3682,0.3652,0.3818,0.3726,0.3658,0.3719,0.3716,0.3843,0.3859,0.39,0.4062,0.407,0.3967,0.3974,0.3978,0.3981,0,0,0,0,0,0,0,0.3313,0.3338,0.3579,0.3538,0.3545,0.3554,0.3575,0.3683,0.3763,0.3664,0.3666,0.3688,0.3845,0.389,0.3905,0.4073,0.3967,0.3976,0.3983,0.3987,0.4346,0.4349,0,0,0,0,0,0,0.3294,0.3328,0.3573,0.3584,0.3427,0.3563,0.3585,0.3642,0.3762,0.3778,0.369,0.3689,0.3874,0.3893,0.3912,0.4062,0.3978,0.3988,0.3994,0.4342,0.4346,0.435,0,0,0,0,0,0,0.3286,0.3315,0.3565,0.3457,0.349,0.3571,0.3634,0.3647,0.3691,0.3782,0.3797,0.3721,0.3872,0.3898,0.4018,0.4069,0.3993,0.4002,0.4339,0.4344,0.4348,0.4359,0,0,0,0,0,0,0.3277,0.3312,0.3356,0.3458,0.3495,0.3665,0.3637,0.3652,0.3709,0.3709,0.3815,0.383,0.3872,0.4002,0.4028,0.4082,0.401,0.4334,0.4341,0.4347,0.4355,0.4364,0.4371,0,0,0,0,0,0.3265,0.3352,0.3358,0.3387,0.3551,0.3668,0.3689,0.3735,0.3713,0.3759,0.3818,0.3826,0.4058,0.4014,0.4044,0.4101,0.4332,0.4339,0.4346,0.4351,0.4362,0.4371,0,0,0,0,0,0,0.3255,0.3366,0.3374,0.3496,0.3572,0.3672,0.3731,0.3745,0.383,0.3827,0.3881,0.3905,0.4024,0.4074,0.4023,0.4224,0.4194,0.4207,0.4187,0.4198,0.4206,0.4193,0.4019,0,0,0,0,0,0.3267,0.335,0.3443,0.3542,0.358,0.3649,0.3701,0.373,0.3812,0.3845,0.3912,0.3993,0.4085,0.4144,0.4233,0.4361,0.4387,0.4416,0.4424,0.4431,0.4443,0.4519,0.4534,0.4374,0.4374,0.4374,0,0,0.3293,0.3363,0.3413,0.3542,0.3604,0.3693,0.3676,0.3769,0.3836,0.386,0.3978,0.403,0.4124,0.425,0.4309,0.4296,0.4493,0.444,0.4445,0.4454,0.4528,0.4543,0.4556,0.4379,0.4378,0.4377,0,0,0.3385,0.3445,0.3536,0.3599,0.3694,0.374,0.3761,0.386,0.3896,0.4014,0.4035,0.4117,0.4272,0.4339,0.4394,0.4515,0.4528,0.4542,0.4588,0.4661,0.4674,0.4685,0.4732,0.4747,0.4554,0.4554,0.4554,0,0.3406,0.3537,0.3582,0.3675,0.3733,0.3757,0.3852,0.3911,0.4031,0.4071,0.4054,0.4253,0.4317,0.4461,0.4491,0.4533,0.4563,0.4531,0.4668,0.468,0.4691,0.4737,0.4753,0.4555,0.4555,0.4555,0.4555,0,0.356,0.365,0.3713,0.3827,0.3892,0.3985,0.4047,0.4107,0.4131,0.4179,0.4303,0.4381,0.4488,0.4524,0.4548,0.4673,0.4663,0.4656,0.4627,0.4707,0.4751,0.4768,0.4557,0.4557,0.4556,0.4556,0,0,0.3651,0.3789,0.3812,0.3866,0.3973,0.4046,0.4141,0.4245,0.4298,0.438,0.4464,0.4596,0.4592,0.4654,0.4686,0.475,0.4845,0.4736,0.4739,0.4757,0.4992,0.4998,0.5017,0.4853,0.4857,0.4859,0.4985,0,0.3758,0.3927,0.3972,0.4118,0.4205,0.4231,0.4315,0.4391,0.444,0.4523,0.4577,0.4671,0.4656,0.4695,0.4759,0.482,0.4894,0.4811,0.4936,0.494,0.4914,0.5039,0.5046,0.516,0.5002,0.5005,0.5007,0,0.3905,0.399,0.4144,0.4243,0.4282,0.4356,0.4457,0.4534,0.4623,0.4654,0.4725,0.4751,0.4856,0.4819,0.4966,0.4909,0.4963,0.5001,0.5006,0.5022,0.498,0.5061,0.5198,0.5216,0.5034,0.5032,0.503,0,0.396,0.4113,0.4226,0.4271,0.4388,0.4441,0.4493,0.4579,0.4639,0.4728,0.4768,0.4868,0.4923,0.5001,0.5056,0.5023,0.5199,0.5166,0.5231,0.523,0.5269,0.5266,0.5419,0.5298,0.5298,0.5298,0.5297,0,0.4076,0.4171,0.4253,0.4322,0.443,0.4482,0.4588,0.4641,0.4717,0.48,0.4829,0.4906,0.4972,0.5059,0.5102,0.522,0.5244,0.5274,0.5285,0.5274,0.527,0.5311,0.5306,0.5302,0.5301,0.5301,0.53,0,0.4156,0.4215,0.434,0.4442,0.447,0.4545,0.4633,0.4704,0.4753,0.4858,0.4886,0.4965,0.507,0.5131,0.5263,0.5293,0.5424,0.543,0.5394,0.5399,0.5462,0.5456,0.5649,0.5679,0.5535,0.5536,0.5537,0,0.4228,0.4301,0.4411,0.4468,0.4521,0.4612,0.4674,0.4729,0.4793,0.4901,0.496,0.5066,0.5154,0.5321,0.5392,0.5494,0.5505,0.5565,0.552,0.5507,0.551,0.5506,0.5516,0.5573,0.5575,0.5576,0.5576,0,0.435,0.4376,0.4464,0.4563,0.4637,0.4717,0.4798,0.4844,0.4912,0.4984,0.5091,0.5159,0.5295,0.5401,0.551,0.5566,0.5585,0.559,0.5611,0.5601,0.5579,0.5596,0.5418,0.5586,0.5585,0.5584,0.5584,0.5583,0.4431,0.4498,0.4587,0.4685,0.4752,0.4827,0.4899,0.4959,0.5048,0.5162,0.5189,0.5303,0.5394,0.5542,0.5601,0.5693,0.5683,0.5712,0.572,0.5728,0.5732,0.5561,0.5712,0.5712,0.5712,0.5712,0.5712,0,0.4557,0.4616,0.4705,0.4818,0.4896,0.4904,0.4995,0.5061,0.516,0.5242,0.5329,0.5454,0.5558,0.5637,0.5745,0.5804,0.5815,0.583,0.5828,0.5842,0.5732,0.5705,0.582,0.582,0.582,0.582,0.582,0.5819,0.4632,0.4749,0.4786,0.4937,0.4996,0.5106,0.5158,0.5229,0.5296,0.5434,0.552,0.5571,0.5654,0.5768,0.5865,0.5886,0.5926,0.5941,0.5964,0.5861,0.5849,0.5838,0.5813,0.5948,0.5948,0.6066,0.6067,0.6068]},{"header":{"parameterUnit":"m.s-1","parameterCategory":1,"la1":30.2991,"la2":30.254,"lo1":-89.0895,"lo2":-89.0444,"dy":0.0017,"dx":0.0017,"nx":28,"ny":28,"refTime":"2023-08-10T21:00:00:Z","depth":0,"parameterNumber":3,"parameterNumberName":"V-component_of_WINDS"},"data":[0,0,0,0,0,0,0,0,0,0,0,0,0,0,0,0,0,0,0,0,0,0,0,0,0,0,0,0,0,0,0,0,0,0,0,0,0,0,0,0,0,0,0,0,0,0,0,0,0,0,0,0,0,0,0,0,0,0,5.4487,5.4489,0,5.4643,5.4645,5.4647,5.4643,5.4641,5.4639,5.4637,5.4785,5.4791,5.4796,0,0,0,0,0,0,0,0,0,0,0,0,0,5.4173,5.4179,5.4487,5.4489,5.4491,5.4643,5.4645,5.4647,5.4644,5.4641,5.4639,5.4636,5.4783,5.479,5.4797,0,0,0,0,0,0,0,0,0,0,0,0,0,5.4317,5.4181,5.4486,5.4508,5.4511,5.4643,5.4645,5.4648,5.4644,5.4641,5.4638,5.4635,5.4781,5.4789,5.4798,5.4915,0,0,5.4825,5.4829,0,0,0,0,0,0,0,0,5.4309,5.4329,5.4502,5.4506,5.4511,5.4621,5.4589,5.4737,5.4645,5.4593,5.4637,5.4634,5.4732,5.4745,5.478,5.4922,5.4928,5.4826,5.4831,5.4835,5.4837,0,0,0,0,0,0,0,5.4299,5.4322,5.4548,5.4505,5.451,5.4506,5.4523,5.4617,5.4678,5.4598,5.4598,5.4617,5.4733,5.4772,5.4784,5.493,5.4825,5.4833,5.4839,5.4842,5.5177,5.518,0,0,0,0,0,0,5.4286,5.4314,5.4543,5.4553,5.4401,5.4514,5.4533,5.4588,5.4677,5.4688,5.462,5.4616,5.4758,5.4774,5.4789,5.4934,5.4835,5.4843,5.4848,5.5173,5.5178,5.5182,0,0,0,0,0,0,5.428,5.4307,5.4537,5.4434,5.4463,5.4523,5.4585,5.4593,5.4632,5.4694,5.4703,5.4649,5.4757,5.4777,5.4885,5.4939,5.4847,5.4855,5.5169,5.5175,5.518,5.5223,0,0,0,0,0,0,5.4271,5.4305,5.4352,5.4435,5.4468,5.4634,5.4588,5.4598,5.4649,5.4646,5.4723,5.4733,5.4756,5.4872,5.4894,5.4949,5.4862,5.5165,5.5172,5.5178,5.5217,5.5229,5.524,0,0,0,0,0,5.426,5.4355,5.4355,5.4382,5.453,5.4637,5.4656,5.4683,5.4653,5.47,5.474,5.4731,5.4929,5.4883,5.4908,5.4966,5.5161,5.517,5.5178,5.5212,5.5227,5.5239,0,0,0,0,0,0,5.4271,5.4366,5.4367,5.4492,5.4558,5.4636,5.4696,5.4698,5.4769,5.4763,5.479,5.4808,5.4917,5.4952,5.4899,5.5085,5.5041,5.5054,5.5059,5.5073,5.5085,5.5074,5.4869,0,0,0,0,0,5.429,5.4373,5.4449,5.4552,5.4585,5.4636,5.4683,5.4699,5.4766,5.4792,5.484,5.4901,5.4978,5.5027,5.51,5.5222,5.5239,5.5274,5.5286,5.5295,5.5306,5.5374,5.5391,5.5208,5.5208,5.5208,0,0,5.4326,5.4388,5.4438,5.4556,5.4609,5.4691,5.4658,5.4746,5.4807,5.4804,5.4911,5.4948,5.5018,5.5135,5.5188,5.5167,5.536,5.5305,5.5312,5.5318,5.5384,5.5402,5.5417,5.5214,5.5213,5.5212,0,0,5.4435,5.4491,5.4584,5.4639,5.4721,5.4754,5.4776,5.4856,5.4882,5.4991,5.4991,5.5061,5.5192,5.5244,5.5286,5.5418,5.5412,5.5441,5.55,5.5566,5.558,5.5593,5.5642,5.5658,5.5451,5.5452,5.5452,0,5.4469,5.4598,5.4631,5.4722,5.4774,5.478,5.4873,5.4922,5.5022,5.5056,5.5032,5.5199,5.5246,5.5376,5.5408,5.5442,5.5468,5.5432,5.5577,5.559,5.5602,5.5648,5.5666,5.5455,5.5454,5.5454,5.5454,0,5.4636,5.4726,5.4791,5.4893,5.4952,5.5043,5.5087,5.5142,5.5153,5.5188,5.5298,5.5356,5.5443,5.5474,5.5483,5.5605,5.559,5.5571,5.5527,5.5622,5.5666,5.5684,5.5459,5.5458,5.5457,5.5456,0,0,5.4756,5.4879,5.4902,5.495,5.5042,5.5109,5.52,5.529,5.5337,5.5405,5.5481,5.5593,5.5578,5.5626,5.5641,5.5699,5.5802,5.5674,5.5676,5.5697,5.5941,5.5956,5.5976,5.5799,5.5802,5.5805,5.5935,0,5.4877,5.5045,5.5078,5.5221,5.5304,5.5312,5.5391,5.5454,5.5489,5.5561,5.5597,5.5678,5.565,5.568,5.5738,5.5778,5.5852,5.5768,5.5868,5.5871,5.5852,5.5999,5.6014,5.6134,5.5952,5.5955,5.5957,0,5.5039,5.5119,5.5273,5.5356,5.5392,5.5463,5.5549,5.5619,5.569,5.5711,5.5768,5.5777,5.5869,5.5821,5.5948,5.5891,5.5933,5.5959,5.5964,5.5975,5.5921,5.6014,5.6173,5.6192,5.5985,5.5982,5.598,0,5.5114,5.5258,5.537,5.541,5.5509,5.5559,5.5602,5.5671,5.5723,5.5796,5.5831,5.5912,5.5956,5.6017,5.6048,5.601,5.6173,5.6127,5.6191,5.6191,5.6226,5.6223,5.6395,5.6251,5.6251,5.625,5.625,0,5.5246,5.534,5.5405,5.5474,5.5579,5.5615,5.5716,5.5757,5.5819,5.5894,5.5902,5.5971,5.6007,5.608,5.6103,5.6206,5.6225,5.6243,5.6248,5.6244,5.6241,5.6272,5.6265,5.6255,5.6254,5.6253,5.6252,0,5.5347,5.5395,5.5517,5.5604,5.5627,5.5701,5.5773,5.5838,5.5874,5.5968,5.5992,5.6047,5.6134,5.6171,5.6275,5.6291,5.6409,5.6407,5.6387,5.6389,5.6453,5.6447,5.6651,5.668,5.6515,5.6517,5.6518,0,5.5429,5.5502,5.5598,5.5652,5.5698,5.5783,5.5838,5.5875,5.5932,5.602,5.6074,5.6163,5.6236,5.6374,5.6421,5.6502,5.6502,5.6568,5.6514,5.6508,5.6505,5.6501,5.6509,5.6578,5.658,5.6581,5.6582,0,5.5569,5.559,5.5673,5.5764,5.5832,5.5904,5.5974,5.6015,5.6063,5.6125,5.6218,5.6275,5.6386,5.6473,5.6557,5.6597,5.6598,5.6599,5.6619,5.6615,5.6601,5.6612,5.6416,5.6594,5.6593,5.6592,5.6592,5.6591,5.5664,5.5731,5.5811,5.5902,5.5961,5.6027,5.6094,5.6141,5.622,5.6317,5.6332,5.6431,5.6499,5.6614,5.6657,5.6733,5.6716,5.6743,5.6751,5.6758,5.6763,5.6589,5.6747,5.6747,5.6747,5.6747,5.6746,0,5.5807,5.586,5.5944,5.6045,5.6117,5.6116,5.6194,5.6253,5.6342,5.6409,5.6483,5.6589,5.6674,5.6729,5.6815,5.6864,5.6867,5.6886,5.6883,5.6892,5.6772,5.6748,5.6883,5.6883,5.6883,5.6883,5.6883,5.6883,5.589,5.6004,5.6035,5.6177,5.6228,5.6329,5.6374,5.6435,5.6489,5.6609,5.6683,5.672,5.6781,5.6872,5.695,5.6963,5.6995,5.7015,5.7028,5.6915,5.69,5.6887,5.6864,5.7022,5.7022,5.7142,5.7143,5.7144]}]]